Home   Weather   Tucson   Past weeks

Flag for USA Past Weather in Tucson, Arizona, USA — Yesterday and Last 2 Weeks

Now
51 °F

Clear.


Feels Like: 46 °F
Forecast: 37 / 60 °F
Wind: 13 mph from Northwest

Location: Davis-Monthan Air Force Base

Current Time: Jan 21, 2017 at 6:43:51 pm

Latest Report: Jan 21, 2017 at 5:58 pm


Visibility: 10 mi

Pressure: 29.92 "Hg (27.31 "Hg at 758m altitude)

Humidity: 43%

Dew Point: 29 °F

Location of TucsonLocation

Past Weather in Tucson — Graph

°F

Tucson Temperature Yesterday

Maximum temperature yesterday: 55 °F (at 2:34 pm)
Minimum temperature yesterday: 47 °F (at 7:58 am)
Average temperature yesterday: 50 °F

High & Low Weather Summary for the Past Weeks

 TemperatureHumidityPressure
High77 °F (Jan 8, 3:58 pm)100% (Jan 14, 11:03 pm)30.32 "Hg (Jan 14, 11:03 pm)
Low39 °F (Jan 17, 6:58 am)13% (Jan 12, 2:58 pm)29.50 "Hg (Jan 21, 12:58 am)
Average53 °F66%29.98 "Hg
* Reported Jan 6 4:58 pm — Jan 21 4:58 pm, Tucson, Weather by CustomWeather, © 2017

Note: Actual official high and low records may vary slightly from our data, if they occured in-between our weather recording intervals... More about our weather records

Advertising

Tucson Weather History for the Previous 24 Hours

Scroll right to see more
 ConditionsComfort  
Time TempWeatherWind HumidityBarometerVisibility
4:58 pm
Sat, Jan 21
53 °FSunny.13 mph38%29.88 "Hg10 mi
3:58 pm54 °FSunny.16 mph36%29.86 "Hg10 mi
2:58 pm54 °FSunny.15 mph40%29.83 "Hg10 mi
1:58 pm53 °FScattered clouds.16 mph44%29.81 "Hg10 mi
12:58 pm53 °FPassing clouds.23 mph49%29.78 "Hg10 mi
12:10 pm50 °FPassing clouds.20 mph58%29.82 "Hg10 mi
11:58 am52 °FLight rain. Scattered clouds.16 mph51%29.79 "Hg10 mi
10:58 am50 °FPartly sunny.21 mph57%29.78 "Hg10 mi
9:58 am51 °FPassing clouds.14 mph58%29.74 "Hg10 mi
8:58 am48 °FSunny.14 mph61%29.69 "Hg10 mi
7:58 am48 °FScattered clouds.13 mph61%29.67 "Hg10 mi
6:58 am48 °FPassing clouds.15 mph59%29.63 "Hg10 mi
5:58 am48 °FPassing clouds.14 mph66%29.59 "Hg10 mi
4:58 am48 °FPassing clouds.13 mph67%29.59 "Hg10 mi
3:58 am47 °FPassing clouds.12 mph78%29.57 "Hg10 mi
2:58 am46 °FClear.10 mph84%29.57 "Hg10 mi
2:03 am46 °FPassing clouds.10 mph82%29.60 "Hg10 mi
1:17 am46 °FHeavy rain. Fog.20 mph87%29.59 "Hg5 mi
12:58 am49 °FRain. Passing clouds.15 mph95%29.50 "Hg10 mi
12:43 am48 °FRain. Passing clouds.13 mph94%29.55 "Hg10 mi
12:35 am48 °FLight rain. Passing clouds.12 mph94%29.55 "Hg10 mi
12:01 am48 °FLight rain. Passing clouds.10 mph87%29.57 "Hg10 mi
11:58 pm
Fri, Jan 20
49 °FPassing clouds.13 mph87%29.52 "Hg10 mi
11:36 pm48 °FPassing clouds.13 mph87%29.57 "Hg10 mi
11:03 pm48 °FPassing clouds.10 mph87%29.59 "Hg10 mi
10:58 pm47 °FLight rain. Passing clouds.12 mph88%29.54 "Hg10 mi
10:23 pm50 °FLight rain. Passing clouds.17 mph76%29.62 "Hg10 mi
9:58 pm51 °FPassing clouds.13 mph69%29.58 "Hg10 mi
8:58 pm49 °FPassing clouds.18 mph73%29.61 "Hg10 mi
8:15 pm48 °FPassing clouds.20 mph76%29.65 "Hg10 mi
7:58 pm49 °FLight rain. Partly cloudy.16 mph78%29.62 "Hg10 mi
7:31 pm50 °FLight rain. Mostly cloudy.15 mph71%29.65 "Hg10 mi
6:58 pm50 °FPassing clouds.7 mph72%29.64 "Hg10 mi
Weather by CustomWeather, © 2017

See weather overviewHow to use our weather pages